This is the latest recevied weather packets stored in our database for station/object SQ9SMC-13. If no packets are shown the sender has not sent any weather packets the latest 10 day(s).
| Time | Temp. | Humidity | Pressure | Rain* | Wind** | Luminosity | Snow |
|---|---|---|---|---|---|---|---|
| 1777958403 | 15° C | 63% | 1012.8 hPa | 0 mm | - | 120 W/m² | - |
| 1777958104 | 14.44° C | 62% | 1012.7 hPa | 0 mm | - | 111 W/m² | - |
| 1777957803 | 13.89° C | 64% | 1013 hPa | 0 mm | - | 104 W/m² | - |
| 1777957504 | 13.33° C | 64% | 1013 hPa | 0 mm | - | 96 W/m² | - |
| 1777957203 | 13.33° C | 62% | 1013 hPa | 0 mm | - | 88 W/m² | - |
| 1777956903 | 13.33° C | 62% | 1013 hPa | 0 mm | - | 76 W/m² | - |
| 1777956602 | 12.78° C | 63% | 1012.9 hPa | 0 mm | - | 63 W/m² | - |
| 1777956303 | 12.78° C | 62% | 1013 hPa | 0 mm | - | 59 W/m² | - |
| 1777956004 | 12.22° C | 63% | 1012.9 hPa | 0 mm | - | 53 W/m² | - |
| 1777955702 | 11.67° C | 65% | 1013.1 hPa | 0 mm | - | 50 W/m² | - |
| 1777955402 | 11.67° C | 66% | 1013 hPa | 0 mm | - | 47 W/m² | - |
| 1777955104 | 11.11° C | 66% | 1012.9 hPa | 0 mm | - | 43 W/m² | - |
| 1777954804 | 10° C | 72% | 1013.1 hPa | 0 mm | - | 39 W/m² | - |
| 1777954503 | 8.89° C | 74% | 1013.1 hPa | 0 mm | - | 35 W/m² | - |
| 1777954203 | 8.33° C | 77% | 1013 hPa | 0 mm | - | 32 W/m² | - |
| 1777953903 | 7.78° C | 80% | 1013 hPa | 0 mm | - | 27 W/m² | - |
| 1777953603 | 6.67° C | 82% | 1013 hPa | 0 mm | - | 23 W/m² | - |
| 1777953303 | 6.67° C | 82% | 1013 hPa | 0 mm | - | 19 W/m² | - |
| 1777953003 | 6.67° C | 81% | 1013 hPa | 0 mm | - | 17 W/m² | - |
| 1777952704 | 6.67° C | 81% | 1013 hPa | 0 mm | - | 14 W/m² | - |
| 1777952404 | 6.67° C | 81% | 1013.1 hPa | 0 mm | - | 12 W/m² | - |
| 1777952103 | 6.67° C | 80% | 1013.2 hPa | 0 mm | - | 10 W/m² | - |
| 1777951804 | 6.67° C | 80% | 1013 hPa | 0 mm | - | 8 W/m² | - |
| 1777951505 | 6.67° C | 79% | 1013.2 hPa | 0 mm | - | 6 W/m² | - |
| 1777951205 | 6.67° C | 79% | 1013.1 hPa | 0 mm | - | 4 W/m² | - |
* Rain latest hour (hover to see other rain measurements)
** Current wind speed in m/s (hover to see current wind gust speed)